Gauley at Summersville (cfs) [ USA-WVR ]

Edit Gauge

Current Conditions

Reading of "n/a" = frozen gauge or gauge error.
Reading Trend Type Updated
5644 cfs 0 cfs/hr Flow 01h17m

Station Description

AW Gauge ID: 8515
Source: virtual
Station: 8515
Enabled yes
Description:StreamTeam Member: Matt Muir The virtual Gauley gauge is based on the rating table published by the USGS in Oct 2003. Funding to update the rating table is no longer available. Discharge values calculated by this virtual gauge are thus calculated based on channel bed morphology as of 2003.
Calculation:$g = $gauge[1434]->getValue(GMETRIC_STAGE,0); if ($g >= 8.9) { $x=(-0.0344*pow($g,5))+(2.6808*pow($g,4))-(77.748*pow($g,3))+(1150.7*pow($g,2))-(7873.3*$g)+19890; } elseif ($g >= 7.0) { $x=(69.822*pow($g,2))-(656.23*$g)+1354.5; } elseif ($g >= 6.5) { $x=(171.43*pow($g,2))-(2104.1*$g)+6474; } else { $x=40; } $flow = $x;
Data is courtesy of AW's Stream Team program. This data is calculated based on other gauges and information provided by the Stream Team. This data, and any river data, should be used with caution.

Information

Flow

Gauge History

Times listed in GMT 24h, ET and PT hours provided for convenience Graphs in GMT. Readings of "n/a" constitute a frozen gauge or gauge error.
Reading Updated (GMT) Eastern Pacific Comment
5644.15 01/17/2018 03:41:52 Jan 16 10:41 pm Jan 16 7:41 pm
5644.15 01/17/2018 02:42:08 Jan 16 09:42 pm Jan 16 6:42 pm
5712.22 01/17/2018 01:42:24 Jan 16 08:42 pm Jan 16 5:42 pm
5725.89 01/17/2018 00:42:40 Jan 16 07:42 pm Jan 16 4:42 pm
5753.27 01/16/2018 23:40:48 Jan 16 06:40 pm Jan 16 3:40 pm
5725.89 01/16/2018 22:41:04 Jan 16 05:41 pm Jan 16 2:41 pm
5780.73 01/16/2018 21:41:20 Jan 16 04:41 pm Jan 16 1:41 pm
5808.25 01/16/2018 20:41:36 Jan 16 03:41 pm Jan 16 12:41 pm
6578.96 01/16/2018 18:42:08 Jan 16 01:42 pm Jan 16 10:42 am
6623.38 01/16/2018 17:42:24 Jan 16 12:42 pm Jan 16 9:42 am
6623.38 01/16/2018 15:40:48 Jan 16 10:40 am Jan 16 7:40 am
6593.75 01/16/2018 14:41:04 Jan 16 09:41 am Jan 16 6:41 am
6608.56 01/16/2018 13:41:20 Jan 16 08:41 am Jan 16 5:41 am
6534.71 01/16/2018 12:41:36 Jan 16 07:41 am Jan 16 4:41 am
6564.19 01/16/2018 11:41:52 Jan 16 06:41 am Jan 16 3:41 am
6593.75 01/16/2018 10:42:08 Jan 16 05:42 am Jan 16 2:42 am
6520.00 01/16/2018 09:42:24 Jan 16 04:42 am Jan 16 1:42 am
6623.38 01/16/2018 08:42:40 Jan 16 03:42 am Jan 16 12:42 am
6564.19 01/16/2018 07:40:48 Jan 16 02:40 am Jan 15 11:40 pm
6608.56 01/16/2018 06:41:04 Jan 16 01:41 am Jan 15 10:41 pm
6549.44 01/16/2018 05:41:20 Jan 16 12:41 am Jan 15 9:41 pm
6593.75 01/16/2018 04:41:36 Jan 15 11:41 pm Jan 15 8:41 pm
6475.98 01/16/2018 03:41:52 Jan 15 10:41 pm Jan 15 7:41 pm
6475.98 01/16/2018 02:42:08 Jan 15 09:42 pm Jan 15 6:42 pm
6653.10 01/16/2018 01:42:24 Jan 15 08:42 pm Jan 15 5:42 pm
6638.23 01/16/2018 00:42:40 Jan 15 07:42 pm Jan 15 4:42 pm
6623.38 01/15/2018 23:40:48 Jan 15 06:40 pm Jan 15 3:40 pm
6608.56 01/15/2018 22:41:04 Jan 15 05:41 pm Jan 15 2:41 pm
6549.44 01/15/2018 21:41:20 Jan 15 04:41 pm Jan 15 1:41 pm
6564.19 01/15/2018 20:41:36 Jan 15 03:41 pm Jan 15 12:41 pm
6623.38 01/15/2018 19:41:52 Jan 15 02:41 pm Jan 15 11:41 am
6682.88 01/15/2018 18:42:08 Jan 15 01:42 pm Jan 15 10:42 am
6697.81 01/15/2018 17:42:24 Jan 15 12:42 pm Jan 15 9:42 am
6667.98 01/15/2018 16:42:40 Jan 15 11:42 am Jan 15 8:42 am
6653.10 01/15/2018 15:40:48 Jan 15 10:40 am Jan 15 7:40 am
6653.10 01/15/2018 14:41:04 Jan 15 09:41 am Jan 15 6:41 am
6638.23 01/15/2018 13:41:20 Jan 15 08:41 am Jan 15 5:41 am
6682.88 01/15/2018 12:41:36 Jan 15 07:41 am Jan 15 4:41 am
6623.38 01/15/2018 11:41:52 Jan 15 06:41 am Jan 15 3:41 am
6638.23 01/15/2018 10:42:08 Jan 15 05:42 am Jan 15 2:42 am
6667.98 01/15/2018 09:42:24 Jan 15 04:42 am Jan 15 1:42 am
6667.98 01/15/2018 08:42:40 Jan 15 03:42 am Jan 15 12:42 am
6578.96 01/15/2018 07:40:48 Jan 15 02:40 am Jan 14 11:40 pm
6727.72 01/15/2018 06:41:04 Jan 15 01:41 am Jan 14 10:41 pm
6653.10 01/15/2018 05:41:20 Jan 15 12:41 am Jan 14 9:41 pm
6608.56 01/15/2018 04:41:36 Jan 14 11:41 pm Jan 14 8:41 pm
6682.88 01/15/2018 03:41:52 Jan 14 10:41 pm Jan 14 7:41 pm
6608.56 01/15/2018 02:42:08 Jan 14 09:42 pm Jan 14 6:42 pm
6638.23 01/15/2018 00:42:40 Jan 14 07:42 pm Jan 14 4:42 pm
6608.56 01/14/2018 23:40:48 Jan 14 06:40 pm Jan 14 3:40 pm
6682.88 01/14/2018 22:41:04 Jan 14 05:41 pm Jan 14 2:41 pm
6623.38 01/14/2018 21:41:20 Jan 14 04:41 pm Jan 14 1:41 pm
6638.23 01/14/2018 20:41:36 Jan 14 03:41 pm Jan 14 12:41 pm
6863.27 01/14/2018 19:41:52 Jan 14 02:41 pm Jan 14 11:41 am
8362.57 01/14/2018 18:42:08 Jan 14 01:42 pm Jan 14 10:42 am
8345.44 01/14/2018 17:42:24 Jan 14 12:42 pm Jan 14 9:42 am
8311.25 01/14/2018 16:42:40 Jan 14 11:42 am Jan 14 8:42 am
8311.25 01/14/2018 15:40:48 Jan 14 10:40 am Jan 14 7:40 am
8345.44 01/14/2018 14:41:04 Jan 14 09:41 am Jan 14 6:41 am
9601.94 01/14/2018 13:41:20 Jan 14 08:41 am Jan 14 5:41 am
10879.80 01/14/2018 12:41:36 Jan 14 07:41 am Jan 14 4:41 am
10859.30 01/14/2018 11:41:52 Jan 14 06:41 am Jan 14 3:41 am
10859.30 01/14/2018 10:42:08 Jan 14 05:42 am Jan 14 2:42 am
10859.30 01/14/2018 09:42:24 Jan 14 04:42 am Jan 14 1:42 am
10962.20 01/14/2018 08:42:40 Jan 14 03:42 am Jan 14 12:42 am
10838.80 01/14/2018 07:40:48 Jan 14 02:40 am Jan 13 11:40 pm
10920.90 01/14/2018 06:41:04 Jan 14 01:41 am Jan 13 10:41 pm
11086.50 01/14/2018 05:41:20 Jan 14 12:41 am Jan 13 9:41 pm
10900.40 01/14/2018 03:41:52 Jan 13 10:41 pm Jan 13 7:41 pm
10859.30 01/14/2018 02:42:08 Jan 13 09:42 pm Jan 13 6:42 pm
10982.80 01/14/2018 01:42:24 Jan 13 08:42 pm Jan 13 5:42 pm
10920.90 01/14/2018 00:42:40 Jan 13 07:42 pm Jan 13 4:42 pm
11003.50 01/13/2018 23:40:48 Jan 13 06:40 pm Jan 13 3:40 pm
10879.80 01/13/2018 22:41:04 Jan 13 05:41 pm Jan 13 2:41 pm
10962.20 01/13/2018 21:41:20 Jan 13 04:41 pm Jan 13 1:41 pm
11003.50 01/13/2018 20:41:36 Jan 13 03:41 pm Jan 13 12:41 pm
10879.80 01/13/2018 19:41:52 Jan 13 02:41 pm Jan 13 11:41 am
10900.40 01/13/2018 18:42:08 Jan 13 01:42 pm Jan 13 10:42 am
10879.80 01/13/2018 17:42:24 Jan 13 12:42 pm Jan 13 9:42 am
10900.40 01/13/2018 16:42:40 Jan 13 11:42 am Jan 13 8:42 am
10818.40 01/13/2018 15:40:48 Jan 13 10:40 am Jan 13 7:40 am
10716.40 01/13/2018 14:41:04 Jan 13 09:41 am Jan 13 6:41 am
9545.62 01/13/2018 13:41:20 Jan 13 08:41 am Jan 13 5:41 am
9433.67 01/13/2018 12:41:36 Jan 13 07:41 am Jan 13 4:41 am
9249.09 01/13/2018 11:41:52 Jan 13 06:41 am Jan 13 3:41 am
9378.04 01/13/2018 10:42:08 Jan 13 05:42 am Jan 13 2:42 am
9285.81 01/13/2018 09:42:24 Jan 13 04:42 am Jan 13 1:42 am
9267.43 01/13/2018 08:42:40 Jan 13 03:42 am Jan 13 12:42 am
9452.27 01/13/2018 07:40:48 Jan 13 02:40 am Jan 12 11:40 pm
9230.77 01/13/2018 06:41:04 Jan 13 01:41 am Jan 12 10:41 pm
9415.10 01/13/2018 05:41:20 Jan 13 12:41 am Jan 12 9:41 pm
7924.57 01/13/2018 04:41:36 Jan 12 11:41 pm Jan 12 8:41 pm
6534.71 01/13/2018 03:41:52 Jan 12 10:41 pm Jan 12 7:41 pm
6490.64 01/13/2018 02:42:08 Jan 12 09:42 pm Jan 12 6:42 pm
6505.31 01/13/2018 01:42:24 Jan 12 08:42 pm Jan 12 5:42 pm
6417.56 01/13/2018 00:42:40 Jan 12 07:42 pm Jan 12 4:42 pm
6461.35 01/12/2018 23:40:48 Jan 12 06:40 pm Jan 12 3:40 pm
6461.35 01/12/2018 22:41:04 Jan 12 05:41 pm Jan 12 2:41 pm
6520.00 01/12/2018 21:41:20 Jan 12 04:41 pm Jan 12 1:41 pm
6534.71 01/12/2018 20:41:36 Jan 12 03:41 pm Jan 12 12:41 pm
5429.25 01/12/2018 19:41:52 Jan 12 02:41 pm Jan 12 11:41 am
4466.27 01/12/2018 18:42:08 Jan 12 01:42 pm Jan 12 10:42 am
3725.00 01/12/2018 17:42:24 Jan 12 12:42 pm Jan 12 9:42 am
3451.90 01/12/2018 16:42:40 Jan 12 11:42 am Jan 12 8:42 am
3260.90 01/12/2018 15:40:48 Jan 12 10:40 am Jan 12 7:40 am
3219.09 01/12/2018 14:41:04 Jan 12 09:41 am Jan 12 6:41 am
3239.97 01/12/2018 13:41:20 Jan 12 08:41 am Jan 12 5:41 am
2441.17 01/12/2018 12:41:36 Jan 12 07:41 am Jan 12 4:41 am
2441.17 01/12/2018 11:41:52 Jan 12 06:41 am Jan 12 3:41 am
2459.73 01/12/2018 10:42:08 Jan 12 05:42 am Jan 12 2:42 am
2450.44 01/12/2018 09:42:24 Jan 12 04:42 am Jan 12 1:42 am
2450.44 01/12/2018 08:42:40 Jan 12 03:42 am Jan 12 12:42 am
2478.35 01/12/2018 07:40:48 Jan 12 02:40 am Jan 11 11:40 pm
2478.35 01/12/2018 06:41:04 Jan 12 01:41 am Jan 11 10:41 pm
1670.77 01/12/2018 02:42:08 Jan 11 09:42 pm Jan 11 6:42 pm
1329.76 01/12/2018 01:42:24 Jan 11 08:42 pm Jan 11 5:42 pm
1329.76 01/12/2018 00:42:40 Jan 11 07:42 pm Jan 11 4:42 pm
1329.76 01/11/2018 23:40:48 Jan 11 06:40 pm Jan 11 3:40 pm
1329.76 01/11/2018 22:41:04 Jan 11 05:41 pm Jan 11 2:41 pm
1329.76 01/11/2018 21:41:20 Jan 11 04:41 pm Jan 11 1:41 pm
1329.76 01/11/2018 20:41:36 Jan 11 03:41 pm Jan 11 12:41 pm
1329.76 01/11/2018 19:41:52 Jan 11 02:41 pm Jan 11 11:41 am
1329.76 01/11/2018 18:42:08 Jan 11 01:42 pm Jan 11 10:42 am
1329.76 01/11/2018 17:42:24 Jan 11 12:42 pm Jan 11 9:42 am
1329.76 01/11/2018 16:42:40 Jan 11 11:42 am Jan 11 8:42 am
1495.47 01/11/2018 15:40:48 Jan 11 10:40 am Jan 11 7:40 am
1458.61 01/11/2018 14:41:04 Jan 11 09:41 am Jan 11 6:41 am
1207.09 01/11/2018 13:41:20 Jan 11 08:41 am Jan 11 5:41 am
1200.47 01/11/2018 12:41:36 Jan 11 07:41 am Jan 11 4:41 am
924.55 01/11/2018 11:41:52 Jan 11 06:41 am Jan 11 3:41 am
924.55 01/11/2018 10:42:08 Jan 11 05:42 am Jan 11 2:42 am
930.13 01/11/2018 09:42:24 Jan 11 04:42 am Jan 11 1:42 am
930.13 01/11/2018 08:42:40 Jan 11 03:42 am Jan 11 12:42 am
930.13 01/11/2018 07:40:48 Jan 11 02:40 am Jan 10 11:40 pm
935.72 01/11/2018 06:41:04 Jan 11 01:41 am Jan 10 10:41 pm
935.72 01/11/2018 05:41:20 Jan 11 12:41 am Jan 10 9:41 pm
930.13 01/11/2018 04:41:36 Jan 10 11:41 pm Jan 10 8:41 pm
930.13 01/11/2018 03:41:52 Jan 10 10:41 pm Jan 10 7:41 pm
930.13 01/11/2018 02:42:08 Jan 10 09:42 pm Jan 10 6:42 pm
930.13 01/11/2018 01:42:24 Jan 10 08:42 pm Jan 10 5:42 pm
930.13 01/11/2018 00:42:40 Jan 10 07:42 pm Jan 10 4:42 pm
963.90 01/10/2018 23:40:48 Jan 10 06:40 pm Jan 10 3:40 pm
963.90 01/10/2018 22:41:04 Jan 10 05:41 pm Jan 10 2:41 pm
963.90 01/10/2018 21:41:20 Jan 10 04:41 pm Jan 10 1:41 pm
958.23 01/10/2018 20:41:36 Jan 10 03:41 pm Jan 10 12:41 pm
952.59 01/10/2018 19:41:52 Jan 10 02:41 pm Jan 10 11:41 am
924.55 01/10/2018 18:42:08 Jan 10 01:42 pm Jan 10 10:42 am
918.98 01/10/2018 17:42:24 Jan 10 12:42 pm Jan 10 9:42 am
918.98 01/10/2018 16:42:40 Jan 10 11:42 am Jan 10 8:42 am
727.91 01/10/2018 15:40:48 Jan 10 10:40 am Jan 10 7:40 am
732.98 01/10/2018 14:41:04 Jan 10 09:41 am Jan 10 6:41 am
727.91 01/10/2018 13:41:20 Jan 10 08:41 am Jan 10 5:41 am
732.98 01/10/2018 12:41:36 Jan 10 07:41 am Jan 10 4:41 am
682.97 01/10/2018 11:41:52 Jan 10 06:41 am Jan 10 3:41 am
678.05 01/10/2018 10:42:08 Jan 10 05:42 am Jan 10 2:42 am
687.91 01/10/2018 09:42:24 Jan 10 04:42 am Jan 10 1:42 am
687.91 01/10/2018 08:42:40 Jan 10 03:42 am Jan 10 12:42 am
682.97 01/10/2018 07:40:48 Jan 10 02:40 am Jan 9 11:40 pm
682.97 01/10/2018 06:41:04 Jan 10 01:41 am Jan 9 10:41 pm
687.91 01/10/2018 05:41:20 Jan 10 12:41 am Jan 9 9:41 pm
682.97 01/10/2018 04:41:36 Jan 9 11:41 pm Jan 9 8:41 pm
687.91 01/10/2018 03:41:52 Jan 9 10:41 pm Jan 9 7:41 pm
682.97 01/10/2018 02:42:08 Jan 9 09:42 pm Jan 9 6:42 pm
682.97 01/10/2018 01:42:24 Jan 9 08:42 pm Jan 9 5:42 pm
692.86 01/09/2018 23:40:48 Jan 9 06:40 pm Jan 9 3:40 pm
687.91 01/09/2018 22:41:04 Jan 9 05:41 pm Jan 9 2:41 pm
682.97 01/09/2018 21:41:20 Jan 9 04:41 pm Jan 9 1:41 pm
682.97 01/09/2018 20:41:36 Jan 9 03:41 pm Jan 9 12:41 pm
682.97 01/06/2018 09:42:24 Jan 6 04:42 am Jan 6 1:42 am
682.97 01/06/2018 08:42:40 Jan 6 03:42 am Jan 6 12:42 am
687.91 01/06/2018 07:40:48 Jan 6 02:40 am Jan 5 11:40 pm
678.05 01/06/2018 06:41:04 Jan 6 01:41 am Jan 5 10:41 pm
687.91 01/06/2018 05:41:20 Jan 6 12:41 am Jan 5 9:41 pm
682.97 01/06/2018 04:41:36 Jan 5 11:41 pm Jan 5 8:41 pm
678.05 01/06/2018 03:41:52 Jan 5 10:41 pm Jan 5 7:41 pm
682.97 01/06/2018 02:42:08 Jan 5 09:42 pm Jan 5 6:42 pm
687.91 01/06/2018 01:42:24 Jan 5 08:42 pm Jan 5 5:42 pm
687.91 01/06/2018 00:42:40 Jan 5 07:42 pm Jan 5 4:42 pm
692.86 01/05/2018 23:40:48 Jan 5 06:40 pm Jan 5 3:40 pm
697.83 01/05/2018 22:41:04 Jan 5 05:41 pm Jan 5 2:41 pm
682.97 01/05/2018 21:41:20 Jan 5 04:41 pm Jan 5 1:41 pm
692.86 01/05/2018 20:41:36 Jan 5 03:41 pm Jan 5 12:41 pm
758.50 01/05/2018 19:41:52 Jan 5 02:41 pm Jan 5 11:41 am
768.81 01/05/2018 18:42:08 Jan 5 01:42 pm Jan 5 10:42 am
773.98 01/05/2018 17:42:24 Jan 5 12:42 pm Jan 5 9:42 am
773.98 01/05/2018 16:42:40 Jan 5 11:42 am Jan 5 8:42 am
768.81 01/05/2018 15:40:48 Jan 5 10:40 am Jan 5 7:40 am
527.87 01/05/2018 14:41:04 Jan 5 09:41 am Jan 5 6:41 am
532.35 01/05/2018 13:41:20 Jan 5 08:41 am Jan 5 5:41 am
527.87 01/05/2018 12:41:36 Jan 5 07:41 am Jan 5 4:41 am
523.41 01/05/2018 11:41:52 Jan 5 06:41 am Jan 5 3:41 am
532.35 01/05/2018 10:42:08 Jan 5 05:42 am Jan 5 2:42 am
527.87 01/05/2018 09:42:24 Jan 5 04:42 am Jan 5 1:42 am
527.87 01/05/2018 08:42:40 Jan 5 03:42 am Jan 5 12:42 am
532.35 01/05/2018 07:40:48 Jan 5 02:40 am Jan 4 11:40 pm
523.41 01/05/2018 06:41:04 Jan 5 01:41 am Jan 4 10:41 pm
527.87 01/05/2018 05:41:20 Jan 5 12:41 am Jan 4 9:41 pm
532.35 01/05/2018 04:41:36 Jan 4 11:41 pm Jan 4 8:41 pm
527.87 01/05/2018 03:41:52 Jan 4 10:41 pm Jan 4 7:41 pm
536.84 01/05/2018 02:42:08 Jan 4 09:42 pm Jan 4 6:42 pm
532.35 01/05/2018 01:42:24 Jan 4 08:42 pm Jan 4 5:42 pm
532.35 01/05/2018 00:42:40 Jan 4 07:42 pm Jan 4 4:42 pm
532.35 01/04/2018 23:40:48 Jan 4 06:40 pm Jan 4 3:40 pm
536.84 01/04/2018 22:41:04 Jan 4 05:41 pm Jan 4 2:41 pm
536.84 01/04/2018 21:41:20 Jan 4 04:41 pm Jan 4 1:41 pm
532.35 01/04/2018 20:41:36 Jan 4 03:41 pm Jan 4 12:41 pm
527.87 01/04/2018 19:41:52 Jan 4 02:41 pm Jan 4 11:41 am
532.35 01/04/2018 18:42:08 Jan 4 01:42 pm Jan 4 10:42 am
527.87 01/04/2018 17:42:24 Jan 4 12:42 pm Jan 4 9:42 am
527.87 01/04/2018 16:42:40 Jan 4 11:42 am Jan 4 8:42 am
532.35 01/04/2018 15:40:48 Jan 4 10:40 am Jan 4 7:40 am
527.87 01/04/2018 14:41:04 Jan 4 09:41 am Jan 4 6:41 am
501.31 01/04/2018 13:41:20 Jan 4 08:41 am Jan 4 5:41 am
501.31 01/04/2018 12:41:36 Jan 4 07:41 am Jan 4 4:41 am
501.31 01/04/2018 11:41:52 Jan 4 06:41 am Jan 4 3:41 am
501.31 01/04/2018 10:42:08 Jan 4 05:42 am Jan 4 2:42 am
505.70 01/04/2018 09:42:24 Jan 4 04:42 am Jan 4 1:42 am
505.70 01/04/2018 08:42:40 Jan 4 03:42 am Jan 4 12:42 am
510.11 01/04/2018 07:40:48 Jan 4 02:40 am Jan 3 11:40 pm
505.70 01/04/2018 06:41:04 Jan 4 01:41 am Jan 3 10:41 pm
510.11 01/04/2018 05:41:20 Jan 4 12:41 am Jan 3 9:41 pm
510.11 01/04/2018 04:41:36 Jan 3 11:41 pm Jan 3 8:41 pm
505.70 01/04/2018 03:41:52 Jan 3 10:41 pm Jan 3 7:41 pm
505.70 01/04/2018 02:42:08 Jan 3 09:42 pm Jan 3 6:42 pm
510.11 01/04/2018 01:42:24 Jan 3 08:42 pm Jan 3 5:42 pm
510.11 01/04/2018 00:42:40 Jan 3 07:42 pm Jan 3 4:42 pm
510.11 01/03/2018 23:40:48 Jan 3 06:40 pm Jan 3 3:40 pm
505.70 01/03/2018 22:41:04 Jan 3 05:41 pm Jan 3 2:41 pm
505.70 01/03/2018 21:41:20 Jan 3 04:41 pm Jan 3 1:41 pm
501.31 01/03/2018 20:41:36 Jan 3 03:41 pm Jan 3 12:41 pm
510.11 01/03/2018 19:41:52 Jan 3 02:41 pm Jan 3 11:41 am
501.31 01/03/2018 18:42:08 Jan 3 01:42 pm Jan 3 10:42 am
501.31 01/03/2018 17:42:24 Jan 3 12:42 pm Jan 3 9:42 am
501.31 01/03/2018 16:42:40 Jan 3 11:42 am Jan 3 8:42 am
505.70 01/03/2018 15:40:48 Jan 3 10:40 am Jan 3 7:40 am
505.70 01/03/2018 14:41:04 Jan 3 09:41 am Jan 3 6:41 am
505.70 01/03/2018 13:41:20 Jan 3 08:41 am Jan 3 5:41 am
510.11 01/03/2018 12:41:36 Jan 3 07:41 am Jan 3 4:41 am
505.70 01/03/2018 11:41:52 Jan 3 06:41 am Jan 3 3:41 am
505.70 01/03/2018 10:42:08 Jan 3 05:42 am Jan 3 2:42 am
501.31 01/03/2018 09:42:24 Jan 3 04:42 am Jan 3 1:42 am
505.70 01/03/2018 08:42:40 Jan 3 03:42 am Jan 3 12:42 am
501.31 01/03/2018 07:40:48 Jan 3 02:40 am Jan 2 11:40 pm
501.31 01/03/2018 06:41:04 Jan 3 01:41 am Jan 2 10:41 pm
496.93 01/03/2018 05:41:20 Jan 3 12:41 am Jan 2 9:41 pm
505.70 01/03/2018 04:41:36 Jan 2 11:41 pm Jan 2 8:41 pm
501.31 01/03/2018 03:41:52 Jan 2 10:41 pm Jan 2 7:41 pm
505.70 01/03/2018 02:42:08 Jan 2 09:42 pm Jan 2 6:42 pm
501.31 01/03/2018 01:42:24 Jan 2 08:42 pm Jan 2 5:42 pm
505.70 01/03/2018 00:42:40 Jan 2 07:42 pm Jan 2 4:42 pm
501.31 01/02/2018 23:40:48 Jan 2 06:40 pm Jan 2 3:40 pm
505.70 01/02/2018 22:41:04 Jan 2 05:41 pm Jan 2 2:41 pm
505.70 01/02/2018 21:41:20 Jan 2 04:41 pm Jan 2 1:41 pm
514.53 01/02/2018 20:41:36 Jan 2 03:41 pm Jan 2 12:41 pm
564.08 01/02/2018 19:41:52 Jan 2 02:41 pm Jan 2 11:41 am
564.08 01/02/2018 18:42:08 Jan 2 01:42 pm Jan 2 10:42 am
568.67 01/02/2018 17:42:24 Jan 2 12:42 pm Jan 2 9:42 am
564.08 01/02/2018 16:42:40 Jan 2 11:42 am Jan 2 8:42 am
663.36 01/02/2018 15:40:48 Jan 2 10:40 am Jan 2 7:40 am
668.25 01/02/2018 14:41:04 Jan 2 09:41 am Jan 2 6:41 am
658.50 01/02/2018 13:41:20 Jan 2 08:41 am Jan 2 5:41 am
663.36 01/02/2018 12:41:36 Jan 2 07:41 am Jan 2 4:41 am
658.50 01/02/2018 11:41:52 Jan 2 06:41 am Jan 2 3:41 am
668.25 01/02/2018 10:42:08 Jan 2 05:42 am Jan 2 2:42 am
658.50 01/02/2018 09:42:24 Jan 2 04:42 am Jan 2 1:42 am
658.50 01/02/2018 08:42:40 Jan 2 03:42 am Jan 2 12:42 am
668.25 01/02/2018 07:40:48 Jan 2 02:40 am Jan 1 11:40 pm
658.50 01/02/2018 06:41:04 Jan 2 01:41 am Jan 1 10:41 pm
658.50 01/02/2018 05:41:20 Jan 2 12:41 am Jan 1 9:41 pm
663.36 01/02/2018 04:41:36 Jan 1 11:41 pm Jan 1 8:41 pm
668.25 01/02/2018 03:41:52 Jan 1 10:41 pm Jan 1 7:41 pm
668.25 01/02/2018 02:42:08 Jan 1 09:42 pm Jan 1 6:42 pm
663.36 01/02/2018 01:42:24 Jan 1 08:42 pm Jan 1 5:42 pm
663.36 01/02/2018 00:42:40 Jan 1 07:42 pm Jan 1 4:42 pm
658.50 01/01/2018 23:40:48 Jan 1 06:40 pm Jan 1 3:40 pm
658.50 01/01/2018 22:41:04 Jan 1 05:41 pm Jan 1 2:41 pm
663.36 01/01/2018 21:41:20 Jan 1 04:41 pm Jan 1 1:41 pm
663.36 01/01/2018 20:41:36 Jan 1 03:41 pm Jan 1 12:41 pm
658.50 01/01/2018 19:41:52 Jan 1 02:41 pm Jan 1 11:41 am
658.50 01/01/2018 18:42:08 Jan 1 01:42 pm Jan 1 10:42 am
663.36 01/01/2018 17:42:24 Jan 1 12:42 pm Jan 1 9:42 am
663.36 01/01/2018 16:42:40 Jan 1 11:42 am Jan 1 8:42 am
800.07 01/01/2018 15:40:48 Jan 1 10:40 am Jan 1 7:40 am
800.07 01/01/2018 14:41:04 Jan 1 09:41 am Jan 1 6:41 am
805.33 01/01/2018 13:41:20 Jan 1 08:41 am Jan 1 5:41 am
907.89 01/01/2018 12:41:36 Jan 1 07:41 am Jan 1 4:41 am
800.07 01/01/2018 11:41:52 Jan 1 06:41 am Jan 1 3:41 am
810.60 01/01/2018 10:42:08 Jan 1 05:42 am Jan 1 2:42 am
805.33 01/01/2018 09:42:24 Jan 1 04:42 am Jan 1 1:42 am
805.33 01/01/2018 08:42:40 Jan 1 03:42 am Jan 1 12:42 am
800.07 01/01/2018 07:40:48 Jan 1 02:40 am Dec 31 11:40 pm
810.60 01/01/2018 06:41:04 Jan 1 01:41 am Dec 31 10:41 pm
653.64 01/01/2018 05:41:20 Jan 1 12:41 am Dec 31 9:41 pm
514.53 01/01/2018 04:41:36 Dec 31 11:41 pm Dec 31 8:41 pm
348.59 01/01/2018 03:41:52 Dec 31 10:41 pm Dec 31 7:41 pm
270.42 01/01/2018 02:42:08 Dec 31 09:42 pm Dec 31 6:42 pm
779.17 01/01/2018 01:42:24 Dec 31 08:42 pm Dec 31 5:42 pm
779.17 01/01/2018 00:42:40 Dec 31 07:42 pm Dec 31 4:42 pm
789.59 12/31/2017 23:40:48 Dec 31 06:40 pm Dec 31 3:40 pm
784.38 12/31/2017 22:41:04 Dec 31 05:41 pm Dec 31 2:41 pm

Report - Reports of Related Gauges

Reports give the public a chance to report on river conditions throughout the country as well as log the history of a river.

Reports

When River/Gauge Subject Level Reporter
8y237d17h02m Gauley at Summersville (cfs) [WV] Account of 05/26/09 245 cfs Ryan Groth

Linked Reaches

Click a heading to sort. Hover over a heading for help.
River Name/Section Class Level running? Updated
Gauley [WV] 7 (Upper). Summersville Dam to Mason Branch IV-V 5644 cfs
0 cfs/hr
H0-
Above Recom.
01h17m
Gauley [WV] 9 (Lower). Bucklick Branch to Swiss III-IV(V) 7780 cfs
-70 cfs/hr
R6-
Runnable
01h00m

Associated Gauges

Disclaimer Data Sources

GAULEY RIVER BELOW SUMMERSVILLE DAM, WV (AW#1434)

13.50 ft 01h15m